Date/Time (UTC),PHv2,PWv2,PTv2,PSv3,PHv3,PWv3,PTv3,MESH,VIL,CompRef,Ref -20C,Flash Rate,Max Flash Density,LJA sigma-level,Max 0-2km AzShear,LLAZ 98th%,MLAZ 98th%,MUCAPE,MLCAPE,CAPE -10C to -30C,MLCIN,SRH 0-1km AGL,EBShear,MeanWind 0-1km AGL,Norm. Sat. Growth Rate,ICP,PWAT,WBZ,AvgBeamHgt,STP(eff),DCAPE,ESRH
2022/05/20 16:10,1,2,1,1,0,0,0,0,2,47.5,36,0,0,0,7,7,2,1537,684,464,194,115,47,39,0,0,1.6,10.9,2.84,0.0,477,247
2022/05/20 16:12,1,2,1,2,0,1,0,0,3,47.5,30,0,0,0,7,7,2,1528,714,462,167,111,48,40,1.0,0,1.6,10.9,2.63,0.0,477,247
2022/05/20 16:14,1,12,1,2,1,1,0,0,4,49.0,37,0,0,0,7,7,3,1495,679,456,155,107,49,40,1.0,0,1.6,10.9,2.19,0.0,477,247
2022/05/20 16:16,1,2,0,5,1,3,2,0.1,6,55.5,38,0,0.0,0,6,6,4,1495,715,452,141,103,48,40,1.0,0,1.6,10.9,1.83,0.0,477,247
2022/05/20 16:18,1,2,0,6,3,5,2,0.1,6,55.5,42,0,0.05,0,6,6,4,1467,715,450,141,102,48,40,2.1,0,1.6,10.9,1.79,0.0,477,247
2022/05/20 16:20,1,2,0,7,3,6,3,0.1,6,55.5,40,1,0.07,0,6,5,4,1464,721,441,134,98,48,41,2.1,0,1.6,10.9,1.54,0.5,483,229
2022/05/20 16:22,1,1,0,6,2,5,2,0.13,7,55.5,42,2,0.07,0,5,4,3,1462,744,435,124,94,48,41,2.2,0,1.6,10.9,1.28,0.5,483,229
2022/05/20 16:24,1,1,0,6,4,5,2,0.14,8,53.5,46,2,0.07,0,5,4,4,1509,817,452,124,103,48,40,2.2,0,1.6,10.9,1.72,0.5,483,229
2022/05/20 16:26,1,1,0,15,5,8,2,0.14,10,58.0,45,4,0.17,0,5,4,3,1538,820,454,118,103,48,40,2.2,0,1.6,10.9,1.75,0.5,483,229
2022/05/20 16:28,1,3,0,12,3,9,3,0.14,10,58.0,42,4,0.17,0,5,4,4,1441,699,426,109,86,48,41,2.2,0,1.6,10.9,0.87,0.5,483,229
2022/05/20 16:30,1,5,0,14,4,10,3,0.22,10,58.0,42,4,0.17,0,5,4,5,1445,703,426,105,86,48,41,2.2,0,1.6,10.9,0.84,0.5,483,229
2022/05/20 16:32,1,2,0,19,6,7,2,0.22,9,57.5,42,4,0.22,0,4,3,4,1523,852,446,105,95,48,40,2.2,0,1.6,10.9,1.33,0.5,546,226
2022/05/20 16:34,1,2,0,22,5,11,2,0.22,12,58.5,42,3,0.22,0,4,3,5,1495,788,432,90,85,48,41,2.2,1,1.6,10.9,0.83,0.5,546,226
2022/05/20 16:36,1,2,0,18,5,14,2,0.26,15,58.5,42,3,0.22,0,4,3,5,1461,737,426,89,83,48,41,0,1,1.6,10.9,0.67,0.5,546,226
2022/05/20 16:38,1,2,0,18,8,17,3,0.26,15,58.5,48,3,0.22,0,4,3,5,1473,780,425,79,83,48,41,0,21,1.6,10.9,0.59,0.8,546,208
2022/05/20 16:40,1,2,0,21,7,18,3,0.26,16,59.0,46,3,0.22,0,4,3,5,1471,780,423,78,82,48,40,0,10,1.6,11.0,0.4,0.8,546,208
2022/05/20 16:42,1,5,0,29,8,25,6,0.25,18,60.0,46,3,0.22,0,6,4,5,1464,780,423,76,82,48,40,0,15,1.6,11.0,0.33,0.8,546,208
2022/05/20 16:44,1,5,0,33,9,31,6,0.25,20,60.0,46,7,0.22,0,6,4,4,1471,820,424,68,80,48,40,0,29,1.6,11.0,0.34,0.8,546,208
2022/05/20 16:46,1,5,0,39,9,27,6,0.25,21,60.0,46,8,0.22,0,6,4,5,1471,820,425,67,80,48,40,0,13,1.6,11.0,0.36,0.8,546,208
2022/05/20 16:48,2,21,0,47,17,30,6,0.43,25,59.0,50,14,0.34,4.6,4,3,5,1464,824,426,64,80,48,40,0,62,1.6,11.0,0.4,0.8,546,208
2022/05/20 16:50,3,30,0,65,22,49,9,0.43,25,61.0,50,21,0.44,3.6,8,3,5,1449,833,427,62,79,48,40,0,45,1.6,11.0,0.47,0.7,546,196
2022/05/20 16:52,4,33,0,64,20,46,10,0.43,25,61.5,48,21,0.44,-2,5,3,6,1436,824,427,61,78,49,40,0,50,1.6,11.0,0.48,0.7,546,196
2022/05/20 16:54,6,41,1,63,24,49,10,0.41,24,61.5,50,36,0.55,4.0,4,3,6,1416,828,427,60,77,50,41,0,71,1.6,10.9,0.6,0.7,616,194
2022/05/20 16:56,6,47,1,54,23,35,6,0.41,27,61.5,48,36,0.55,-2,4,3,8,1416,828,426,60,76,50,41,0,71,1.6,10.9,0.63,0.7,616,194
2022/05/20 16:58,10,49,1,61,35,31,6,0.52,27,61.5,51,36,0.55,0.2,4,3,8,1406,839,426,60,75,51,41,0,73,1.6,10.9,0.71,0.7,616,194
2022/05/20 17:00,9,44,0,53,33,21,4,0.55,28,60.0,51,36,0.55,0.6,4,3,8,1461,682,446,166,94,47,35,0,72,1.6,10.9,0.88,1.1,643,269
2022/05/20 17:02,7,41,0,56,36,23,4,0.55,28,60.0,52,30,0.55,0.3,4,3,8,1462,706,446,165,94,47,35,0,72,1.6,10.9,0.89,1.1,643,269
2022/05/20 17:04,17,50,0,62,41,24,6,0.61,28,60.5,52,39,0.55,0.7,4,3,7,1428,589,445,168,92,52,35,0,75,1.6,11.0,1.16,1.1,643,255
2022/05/20 17:06,17,50,0,62,41,26,6,0.61,29,60.5,52,39,0.55,-1,4,3,7,1428,563,445,168,92,52,35,0,73,1.6,11.0,1.2,1.1,643,255
2022/05/20 17:08,17,47,0,62,37,27,6,0.61,29,60.5,52,39,0.55,0,4,3,7,1424,510,445,177,92,52,35,0,72,1.6,11.0,1.32,1.1,643,255
2022/05/20 17:10,21,36,0,71,46,25,3,0.67,29,63.5,52,39,0.55,1.6,5,2,7,1412,428,439,196,88,53,35,0,74,1.6,11.0,1.6,0.0,543,204
2022/05/20 17:12,28,48,0,77,58,25,4,0.84,33,63.5,57,34,0.59,0,5,2,7,1412,410,439,200,88,53,35,0,74,1.6,11.0,1.61,0.0,543,204
2022/05/20 17:14,35,64,0,80,62,24,4,0.84,33,66.0,57,45,0.59,1.0,5,2,8,1422,348,434,217,76,53,36,0,78,1.6,11.0,1.95,0.0,543,204
2022/05/20 17:16,35,64,0,81,59,24,4,0.84,35,66.0,54,45,0.59,0,5,2,8,1422,307,432,230,73,53,36,0,79,1.6,11.0,2.09,0.0,543,204
2022/05/20 17:18,41,65,0,80,62,18,4,0.82,38,66.0,57,58,0.63,2.0,3,2,7,1440,285,432,243,70,53,35,0,78,1.6,11.0,2.21,0.0,543,204
2022/05/20 17:20,41,65,0,76,64,8,2,0.82,38,66.0,57,58,0.63,-2,3,2,6,1471,237,432,266,61,53,35,0,78,1.6,11.1,2.45,0,513,157
2022/05/20 17:22,41,64,0,75,51,8,2,0.82,38,65.5,50,58,0.63,0,3,2,5,1488,202,432,278,55,53,35,0,77,1.6,11.1,2.55,0,513,157
2022/05/20 17:24,24,53,0,62,49,7,2,0.61,30,63.5,54,58,0.63,1.8,3,2,5,1520,176,434,298,51,53,35,0,78,1.6,11.1,2.77,0,513,157
2022/05/20 17:26,24,48,0,53,44,6,2,0.61,29,63.5,52,58,0.63,-1,3,2,4,1576,154,438,320,44,53,35,0,79,1.6,11.1,3.04,0,513,157
2022/05/20 17:28,41,63,0,58,48,10,2,0.82,36,60.5,54,58,0.63,-1,5,2,4,1591,149,440,327,44,53,35,0,84,1.6,11.1,3.11,0,513,157
2022/05/20 17:30,41,68,0,60,50,14,3,0.84,36,60.5,56,58,0.63,1.5,5,3,4,1625,115,447,349,40,53,36,0,91,1.6,11.1,3.53,0,513,157
2022/05/20 17:32,42,68,0,58,47,14,4,0.92,37,60.0,55,43,0.63,-1,5,3,4,1637,113,448,356,39,53,36,0,94,1.6,11.1,3.7,0,513,157
2022/05/20 17:34,49,68,0,58,54,15,5,1.01,38,60.5,56,43,0.63,0,5,3,4,1653,98,453,356,36,53,36,0,94,1.6,11.1,3.92,0,505,125
2022/05/20 17:36,60,76,0,75,59,27,10,1.17,49,64.5,57,43,0.63,0.1,9,4,4,1668,89,462,350,34,54,37,0,94,1.6,11.1,4.3,0,505,125
2022/05/20 17:38,76,74,0,82,67,27,11,1.63,49,64.5,63,34,0.63,0.8,9,4,4,1686,102,466,350,35,53,37,0,86,1.6,11.1,4.41,0,505,125
2022/05/20 17:40,79,81,0,85,85,27,11,1.76,54,64.5,63,34,0.63,0,8,5,4,1790,159,480,350,40,51,37,0,76,1.7,11.2,4.56,0,505,125
2022/05/20 17:42,79,82,0,86,86,29,11,1.76,54,70.0,63,36,0.63,1.2,8,6,4,1790,174,481,340,44,51,37,0,88,1.7,11.2,4.83,0,505,122
2022/05/20 17:44,82,83,0,89,89,37,17,1.88,54,70.0,65,36,0.63,0,8,6,4,1790,177,484,335,46,51,37,0,81,1.7,11.2,5.04,0,505,122
2022/05/20 17:46,86,85,0,90,86,37,13,1.88,55,70.0,60,46,0.63,1.1,8,6,4,1786,173,486,320,49,51,38,0,89,1.7,11.2,5.37,0,513,108
2022/05/20 17:48,92,82,0,89,87,33,11,1.88,55,69.0,63,71,0.63,2.2,8,4,4,1786,170,487,309,53,51,38,0,90,1.7,11.2,5.62,0,591,104
2022/05/20 17:50,88,83,0,87,76,29,10,1.59,59,69.0,63,71,0.5,-1,8,4,3,1757,149,486,300,57,51,38,0,93,1.7,11.2,5.99,0,591,104
2022/05/20 17:52,88,83,0,85,74,26,7,1.59,59,69.0,60,71,0.5,0.2,8,4,3,1750,141,487,294,64,50,38,0,94,1.7,11.2,6.42,0,591,93
2022/05/20 17:54,92,82,0,80,68,23,5,1.59,59,68.0,63,105,0.5,3.4,8,4,3,1789,148,488,290,69,50,38,0,94,1.7,11.2,6.76,0,591,93
2022/05/20 17:56,92,79,0,82,64,25,6,1.52,53,67.5,60,105,0.48,-2,6,3,3,1797,149,488,290,75,50,39,0,94,1.7,11.2,7.03,0,591,93
2022/05/20 17:58,92,79,0,82,66,23,8,1.52,52,66.5,61,105,0.48,1.1,5,3,3,1809,160,488,289,80,50,39,0,91,1.7,11.2,7.43,0,591,93
2022/05/20 18:00,87,79,0,82,65,19,5,1.32,51,66.0,61,105,0.48,-1,5,3,3,1816,164,487,289,83,49,39,0,93,1.7,11.2,7.78,0,653,169
2022/05/20 18:02,84,79,0,83,62,16,4,1.32,50,66.0,60,88,0.48,0,4,3,4,1808,167,512,253,74,50,38,0,90,1.7,11.2,8.18,0,653,169
2022/05/20 18:04,80,79,0,83,60,25,7,1.23,50,66.0,60,88,0.48,0.3,9,3,3,1845,169,511,259,76,50,39,0,94,1.7,11.2,8.52,0,653,169
2022/05/20 18:06,69,76,0,83,60,26,7,1.23,50,65.0,58,59,0.48,0,9,3,4,1892,176,508,262,78,50,39,0,93,1.7,11.2,8.95,0,666,169
2022/05/20 18:08,77,76,0,81,58,25,7,1.18,50,63.5,58,81,0.48,1.1,5,3,4,1934,192,509,267,82,49,39,0,93,1.7,11.2,9.08,0,666,169
2022/05/20 18:10,64,76,0,79,56,25,6,0.99,47,63.5,58,81,0.48,-1,3,3,4,1969,199,507,269,84,49,40,0,92,1.7,11.2,9.39,0,666,149
2022/05/20 18:12,64,79,0,71,55,16,4,0.99,47,62.0,57,81,0.48,0,3,3,4,2018,219,507,271,87,49,40,0,87,1.7,11.2,9.45,0,666,149
2022/05/20 18:14,64,76,0,67,53,13,3,0.96,45,62.0,56,81,0.48,0.1,4,3,5,2057,236,505,272,90,49,41,0,91,1.7,11.2,9.83,0,666,131
2022/05/20 18:16,51,78,0,68,51,15,4,0.91,44,62.0,56,63,0.48,1.0,5,5,5,2099,254,506,272,92,49,41,0,92,1.7,11.2,9.88,0,666,131
2022/05/20 18:18,51,82,0,64,53,17,5,0.94,48,60.0,56,63,0.48,-1,5,5,4,2121,271,507,272,93,49,41,0,93,1.7,11.2,9.82,0,582,119
2022/05/20 18:20,51,82,0,64,50,17,5,0.94,48,60.0,55,63,0.44,0,5,5,4,2151,288,508,270,94,48,42,0,95,1.7,11.2,9.67,0,582,119
2022/05/20 18:22,51,85,0,66,51,19,6,0.94,48,60.0,55,63,0.44,1.8,6,5,5,2190,316,513,267,99,48,42,0,96,1.7,11.2,9.14,0,596,119
2022/05/20 18:24,44,91,3,76,51,41,20,0.89,43,59.5,54,61,0.44,-1,13,8,7,2222,346,516,261,99,48,42,0,96,1.7,11.2,8.78,0,596,119
2022/05/20 18:26,49,94,8,79,61,39,22,0.86,42,60.5,55,69,0.45,1.3,13,8,10,2233,370,518,252,101,48,43,0,97,1.7,11.2,8.52,0,596,105
2022/05/20 18:28,50,94,8,79,58,39,23,0.86,42,61.0,52,69,0.45,-1,13,8,10,2259,421,526,231,105,48,43,0,96,1.7,11.2,8.06,0,596,105
2022/05/20 18:30,56,95,10,80,58,39,23,0.86,42,61.0,52,77,0.65,1.6,13,8,9,2259,504,532,213,107,47,43,0,96,1.7,11.1,7.74,0,596,105
2022/05/20 18:32,53,94,11,77,56,37,22,0.84,38,61.0,52,77,0.65,-1,13,8,9,2262,587,539,196,110,47,43,0,97,1.6,11.1,7.45,0,596,105
2022/05/20 18:34,53,97,6,71,49,37,20,0.84,38,58.5,53,77,0.65,0,13,7,9,2259,682,549,165,114,47,44,0,97,1.6,11.1,7.15,0,596,105
2022/05/20 18:36,56,94,2,68,46,29,15,0.77,35,59.0,53,77,0.65,0.0,9,5,6,2274,856,563,128,119,47,44,0,97,1.6,11.1,6.8,0.1,703,118
2022/05/20 18:38,28,81,2,67,39,42,12,0.73,35,59.5,52,39,0.65,0,9,5,6,2284,1031,570,92,125,47,45,0,96,1.6,11.1,6.44,0.1,703,118
2022/05/20 18:40,21,69,1,65,38,39,7,0.73,35,59.5,52,31,0.65,0.2,7,4,6,2309,1261,577,63,129,47,45,0,97,1.6,11.1,6.01,0.1,703,118
2022/05/20 18:42,15,71,2,63,36,39,7,0.62,36,60.5,52,31,0.65,0,7,4,7,2319,1338,585,55,131,47,45,0,96,1.6,11.1,5.72,0.1,703,118
2022/05/20 18:44,13,68,2,58,35,38,7,0.62,36,60.5,52,29,0.65,-3,7,4,7,2332,1389,585,54,131,47,45,0,95,1.6,11.1,5.69,0.1,703,118
2022/05/20 18:46,15,70,3,66,44,39,7,0.66,39,60.5,52,29,0.65,1.0,6,4,5,2365,1498,571,48,134,47,45,0,98,1.6,11.1,5.19,0.1,703,118
2022/05/20 18:48,14,68,4,67,44,38,7,0.66,39,59.5,52,28,0.65,1.1,6,4,6,2384,1564,559,40,136,47,45,0,97,1.6,11.1,4.91,0.1,703,118
2022/05/20 18:50,11,68,4,70,40,49,7,0.66,39,59.0,52,27,0.65,-1,7,4,6,2417,1643,536,39,138,47,45,0,98,1.6,11.1,4.49,0.1,760,123
2022/05/20 18:52,9,65,3,65,34,49,6,0.55,32,58.5,52,32,0.65,1.7,7,4,6,2437,1736,537,41,139,47,45,0,96,1.6,11.1,4.22,0.1,760,123
2022/05/20 18:54,9,68,4,66,37,48,6,0.59,33,58.5,53,32,0.65,-1,7,4,7,2476,1800,539,41,140,47,45,0,97,1.6,11.1,4.07,0.1,760,123
2022/05/20 18:56,10,70,5,68,40,54,8,0.6,33,61.5,53,32,0.65,0.5,8,4,5,2476,1800,547,41,140,47,44,0,97,1.7,11.1,3.78,0.1,760,123
2022/05/20 18:58,14,71,6,65,37,49,8,0.65,35,61.5,54,32,0.65,0,8,4,5,2592,2063,554,36,140,48,44,0,96,1.6,11.1,3.59,0.1,760,123
2022/05/20 19:00,14,54,3,68,34,58,12,0.65,37,61.5,53,19,0.65,0.4,8,4,5,2536,1689,729,40,127,51,45,0,97,1.7,11.1,3.24,0.1,805,198
2022/05/20 19:02,19,76,6,73,34,64,18,0.65,37,60.5,52,31,0.3,1.0,10,5,6,2540,1750,725,38,126,51,45,0,97,1.7,11.1,3.08,0.1,805,198
2022/05/20 19:04,20,78,12,77,37,69,25,0.68,38,62.5,52,31,0.32,0,12,6,6,2540,1750,689,38,126,51,45,0,96,1.7,11.1,2.66,0.1,919,198
2022/05/20 19:06,48,88,13,78,44,69,28,0.95,38,62.5,54,36,0.36,1.5,11,6,5,2548,1828,688,36,126,51,45,0,96,1.7,11.1,2.6,0.1,919,198
2022/05/20 19:08,48,88,13,77,46,66,26,0.95,38,62.5,58,39,0.4,0.3,11,6,5,2548,1828,688,36,126,51,45,0,96,1.7,11.1,2.6,0.1,919,198
2022/05/20 19:10,48,88,10,76,47,65,24,0.95,38,62.5,56,39,0.4,-2,11,6,6,2540,1790,658,39,128,51,45,0,97,1.7,11.1,2.34,0.1,919,198
2022/05/20 19:12,78,89,13,88,65,67,26,1.42,40,66.0,63,40,0.45,1.7,11,6,7,2548,1828,652,38,127,51,45,0,97,1.7,11.1,2.22,0.1,919,198
2022/05/20 19:14,76,89,10,87,66,67,26,1.46,43,66.0,64,40,0.45,-1,11,6,6,2548,1790,648,44,129,51,45,0,97,1.7,11.1,2.09,0.1,919,210
2022/05/20 19:16,76,92,17,90,65,68,27,1.46,48,71.0,60,40,0.45,0.5,11,7,6,2597,1908,640,39,129,51,45,0,98,1.7,11.0,1.8,0.1,919,211
2022/05/20 19:18,78,92,17,90,68,72,27,1.55,48,71.0,62,40,0.45,0,11,7,7,2597,1908,640,38,128,51,45,0,96,1.7,11.0,1.79,0.1,919,211
2022/05/20 19:20,76,92,41,91,66,76,33,1.55,49,71.0,60,36,0.45,1.0,15,9,7,2619,1922,628,38,129,51,45,0,96,1.7,11.0,1.53,0.1,919,211
2022/05/20 19:22,78,92,55,92,72,76,35,1.59,50,68.5,64,36,0.45,0,15,9,8,2691,2028,627,29,127,51,45,0,95,1.7,10.9,1.41,0.1,951,211
2022/05/20 19:24,79,95,55,92,72,76,34,1.65,53,68.5,62,36,0.45,-1,15,9,8,2691,2028,625,29,127,51,45,0,95,1.7,10.9,1.32,0.1,951,211
2022/05/20 19:26,87,95,56,94,86,75,34,2.17,60,68.0,62,36,0.45,0.4,15,9,8,2658,2094,619,23,127,52,45,0,97,1.7,10.9,1.12,0.1,813,211
2022/05/20 19:28,84,95,46,94,91,74,29,2.17,64,67.5,65,31,0.45,0,11,8,10,2701,2112,619,23,127,52,45,0,97,1.7,10.9,1.08,0.1,813,211
2022/05/20 19:30,86,95,50,94,90,72,38,2.17,64,68.0,63,33,0.45,1.5,11,8,10,2687,2124,617,17,127,52,45,0,98,1.7,10.9,0.94,0.9,813,211
2022/05/20 19:32,86,95,62,94,91,72,39,2.25,66,68.0,64,33,0.45,0,11,8,13,2687,2186,612,15,124,52,45,0,98,1.7,10.8,0.8,1.2,813,211
2022/05/20 19:34,86,95,62,94,91,72,39,2.26,71,68.0,62,33,0.45,0.1,11,8,13,2701,2236,611,12,124,52,45,0,98,1.7,10.8,0.74,1.2,813,211
2022/05/20 19:36,92,95,86,95,90,76,50,2.26,71,68.0,59,45,0.45,2.3,17,10,13,2710,2256,601,10,122,51,45,0,99,1.6,10.7,0.62,1.2,813,211
2022/05/20 19:38,92,95,86,95,90,75,47,2.26,72,67.5,61,45,0.45,-1,17,10,13,2722,2285,603,9,122,51,45,0,97,1.6,10.7,0.58,1.2,813,211
2022/05/20 19:40,91,95,89,94,89,76,50,1.87,72,65.0,61,46,0.45,1.2,20,11,13,2729,2311,603,9,122,51,45,0,98,1.6,10.7,0.55,1.2,813,211
2022/05/20 19:42,88,95,89,95,81,76,47,1.74,72,65.0,61,46,0.45,-1,20,11,13,2733,2333,623,8,123,50,45,0,87,1.6,10.6,0.55,1.2,826,201
2022/05/20 19:44,87,95,91,95,80,76,47,1.68,69,65.0,61,46,0.45,0,20,13,12,2733,2346,626,8,123,50,45,0,88,1.6,10.6,0.55,1.4,826,201
2022/05/20 19:46,85,95,91,94,78,75,47,1.54,67,63.5,60,46,0.45,0,21,13,14,2754,2377,633,8,124,50,44,0,92,1.6,10.7,0.62,1.4,826,201
2022/05/20 19:48,83,95,91,93,77,74,47,1.61,60,63.0,63,36,0.45,0.7,21,13,11,2763,2379,635,8,124,50,44,0,92,1.6,10.7,0.63,1.4,826,201
2022/05/20 19:50,83,95,91,93,76,73,48,1.61,60,63.0,60,36,0.45,0,21,13,11,2772,2379,635,8,126,50,44,0,94,1.6,10.7,0.73,1.4,826,201
2022/05/20 19:52,90,95,88,94,77,75,47,1.61,59,64.0,58,59,0.41,4.2,21,13,10,2796,2385,638,8,126,50,44,0,94,1.6,10.8,0.84,1.4,826,201
2022/05/20 19:54,86,95,83,94,77,76,47,1.45,59,64.0,59,59,0.35,-1,17,11,10,2797,2385,646,8,126,50,44,0,97,1.6,10.8,0.88,1.4,826,201
2022/05/20 19:56,86,95,82,93,75,75,50,1.24,55,64.0,59,65,0.35,1.8,17,10,12,2807,2394,662,8,126,50,43,0,98,1.6,10.8,1.01,1.4,826,201
2022/05/20 19:58,85,95,81,93,72,73,44,1.2,52,64.0,60,65,0.35,-1,16,9,13,2452,2016,622,12,141,54,43,0,98,1.6,10.8,1.15,0.4,833,136
2022/05/20 20:00,85,95,66,91,72,70,50,1.23,51,62.5,57,65,0.35,0,12,8,12,2497,2052,632,13,141,54,43,0,99,1.6,10.8,1.21,0.8,940,154
2022/05/20 20:02,85,95,65,91,68,69,49,1.23,44,62.5,56,65,0.35,0.1,12,8,12,2544,2089,644,15,139,54,42,0,99,1.6,10.9,1.41,0.8,940,154
2022/05/20 20:04,79,95,77,92,71,73,55,1.23,46,62.0,57,46,0.35,0,18,8,10,2561,2094,648,15,139,54,42,0,99,1.6,10.9,1.51,0.8,940,154
2022/05/20 20:06,78,95,77,90,65,72,54,1.1,46,60.0,58,45,0.35,0,14,8,10,2572,2126,651,15,137,53,42,0,98,1.6,10.9,1.64,0.8,940,154
2022/05/20 20:08,79,95,68,92,71,77,55,1.17,50,62.5,58,45,0.35,0.6,14,8,10,2620,2168,683,15,134,52,41,0,99,1.6,10.9,1.89,0.8,940,154
2022/05/20 20:10,88,95,57,93,76,75,55,1.54,56,62.5,58,41,0.35,0,14,8,10,2612,2166,676,15,133,52,41,0,99,1.6,10.9,1.92,0.8,940,154
2022/05/20 20:12,94,95,67,95,88,73,45,2.15,62,64.0,60,41,0.35,0,14,8,12,2620,2171,683,15,128,51,41,0,98,1.6,10.9,2.24,0.2,940,154
2022/05/20 20:14,94,95,67,96,90,75,45,2.15,70,66.0,63,41,0.35,0.5,14,8,12,2620,2179,687,15,126,51,41,0,98,1.6,11.0,2.4,0.2,940,154
2022/05/20 20:16,94,95,58,96,91,75,42,2.24,70,66.0,62,39,0.35,0.7,15,7,12,2614,2171,685,15,124,50,41,0,98,1.6,11.0,2.49,0.2,940,125
2022/05/20 20:18,96,95,63,96,92,76,41,2.35,71,66.0,64,61,0.35,8.2,15,8,13,2596,2166,665,15,121,50,41,0,97,1.6,11.0,2.71,0.2,1005,125
2022/05/20 20:20,96,95,67,96,92,76,41,2.72,73,66.0,66,61,0.35,-3,15,8,13,2596,2166,663,15,120,49,41,0,97,1.6,11.0,2.78,0.2,1005,125
2022/05/20 20:22,95,95,65,96,90,75,38,2.72,77,66.0,62,61,0.35,0.1,14,8,12,2600,2154,635,15,119,49,41,0,96,1.6,11.0,2.93,0.1,943,125
2022/05/20 20:24,95,95,65,96,92,75,32,2.72,77,66.0,65,61,0.33,0.0,14,8,12,2614,2157,619,15,118,49,41,0,95,1.6,11.0,3.12,0.1,943,125
2022/05/20 20:26,89,95,58,94,91,69,25,2.74,77,67.0,66,38,0.33,0.1,14,8,12,2614,2154,558,14,117,48,40,0,95,1.6,11.0,3.39,0.1,926,122
2022/05/20 20:28,88,95,55,94,91,69,25,2.74,76,68.0,64,45,0.33,0.5,14,8,11,2614,2152,529,14,116,48,40,0,97,1.6,11.0,3.52,0.1,926,122
2022/05/20 20:30,94,95,57,92,90,57,18,2.74,70,68.0,62,61,0.39,1.3,14,8,3,2621,2154,554,14,116,48,40,0,97,1.6,11.0,3.52,0.1,926,122
2022/05/20 20:32,93,95,33,94,91,68,17,2.54,67,70.5,63,61,0.39,-3,13,6,9,2620,2149,529,14,116,48,40,0,97,1.6,11.0,3.6,0.1,926,122
2022/05/20 20:34,91,95,39,94,92,60,15,2.72,68,70.5,66,61,0.39,1.5,12,7,10,2621,2145,486,13,115,48,40,0,98,1.6,11.0,3.96,0.0,885,122
2022/05/20 20:36,90,95,69,94,92,61,24,2.72,68,70.5,64,61,0.39,-1,23,8,12,2627,2149,495,13,115,47,40,0,98,1.6,11.0,4.16,0.0,885,122
2022/05/20 20:38,90,95,69,94,91,60,20,2.72,68,68.0,64,58,0.4,0.0,23,8,10,2627,2157,503,13,115,47,40,0,94,1.6,11.0,4.28,0.0,885,122
2022/05/20 20:40,91,95,73,94,92,58,21,2.6,68,68.0,66,65,0.43,1.6,23,8,11,2644,2172,493,12,114,47,40,0,95,1.6,11.1,4.64,0.0,885,116
2022/05/20 20:42,91,95,71,93,92,59,20,2.6,68,68.0,66,65,0.43,-1,23,9,11,2644,2172,497,13,114,47,40,0,89,1.6,11.1,4.84,0.0,885,116
2022/05/20 20:44,91,95,71,93,92,53,18,2.6,62,68.5,66,65,0.43,1.0,23,9,10,2643,2184,505,14,115,47,41,0,92,1.6,11.1,5.21,0.0,867,95
2022/05/20 20:46,91,95,71,92,92,53,18,2.39,62,68.5,66,65,0.43,-1,23,9,10,2637,2172,511,14,115,47,41,0,92,1.6,11.1,5.27,0.0,867,95
2022/05/20 20:48,90,95,65,93,92,56,19,2.67,62,68.5,66,60,0.43,0.3,23,9,10,2568,2162,534,19,115,47,41,0,95,1.6,11.1,5.62,0.0,867,95
2022/05/20 20:50,91,95,68,93,92,56,22,2.67,62,69.5,66,60,0.43,0.6,23,9,10,2499,2117,551,26,115,47,41,0,94,1.7,11.2,6.01,0.0,867,95
2022/05/20 20:52,89,95,41,92,92,48,16,2.68,62,69.5,66,52,0.43,0,12,8,10,2455,2064,558,31,116,47,41,0,93,1.7,11.2,6.16,0.0,867,95
2022/05/20 20:54,89,95,31,92,92,46,14,2.77,62,69.5,66,52,0.43,0,12,7,7,2400,1992,550,36,116,47,41,0,97,1.7,11.2,6.38,0.0,867,95
2022/05/20 20:56,89,95,29,92,92,48,15,2.77,60,72.0,66,52,0.43,0,12,8,7,2352,1920,551,45,116,47,41,0,97,1.7,11.2,6.65,0.0,867,95
2022/05/20 20:58,87,95,45,93,92,56,19,2.77,59,72.0,66,42,0.61,0,21,10,7,2352,1920,550,46,119,47,41,0,90,1.7,11.2,6.74,0.0,867,95
2022/05/20 21:00,85,95,27,92,92,50,19,2.69,60,72.0,66,42,0.61,0,21,10,8,2051,1361,494,78,154,48,45,0,92,1.6,11.2,6.99,0.0,859,64
2022/05/20 21:02,82,95,24,92,91,50,19,2.59,60,72.0,63,37,0.61,-1,16,10,8,2051,1256,497,86,160,48,45,0,94,1.6,11.2,7.34,0.0,859,64
2022/05/20 21:04,81,95,18,92,91,45,16,2.59,60,72.0,63,36,0.61,0,16,10,8,2038,1203,499,100,165,49,45,0,65,1.6,11.2,7.49,0.0,859,64
2022/05/20 21:06,82,95,22,92,91,50,17,2.18,55,72.0,66,34,0.61,0.0,16,10,9,1978,1140,521,120,176,49,45,0,72,1.6,11.2,7.93,0.0,859,64
2022/05/20 21:08,88,95,25,91,90,42,14,2.18,55,71.0,66,48,0.61,9.6,12,10,10,1978,1097,521,123,179,49,45,0,33,1.6,11.2,8.05,0.0,859,64
2022/05/20 21:10,88,95,21,92,90,40,12,3.41,55,71.5,66,48,0.61,-2,12,10,10,1978,1114,518,123,179,49,45,0,42,1.6,11.2,8.01,0.0,859,64
2022/05/20 21:12,88,95,24,91,89,38,20,3.41,47,71.5,64,48,0.61,0.0,12,10,8,1960,1005,525,159,210,51,45,0,60,1.6,11.3,8.96,0,882,47
2022/05/20 21:14,88,95,25,90,87,34,15,3.41,47,71.5,65,48,0.67,0.7,12,10,8,1948,1005,522,159,218,51,45,0,33,1.6,11.3,9.03,0,882,47
2022/05/20 21:16,86,92,11,89,88,34,17,2.7,49,68.5,65,34,0.67,-1,14,8,8,1948,998,522,159,218,51,45,0,43,1.6,11.3,9.07,0,882,47
2022/05/20 21:18,87,92,4,87,81,30,10,2.7,49,68.5,56,34,0.67,0,10,7,8,1893,928,520,185,243,53,45,0,36,1.6,11.3,9.98,0,882,47
2022/05/20 21:20,87,92,4,87,84,28,10,2.7,49,68.5,61,34,0.67,0,10,7,5,1885,925,520,189,244,53,45,0,45,1.6,11.3,10.06,0,882,47
2022/05/20 21:22,54,83,2,71,54,21,6,1.49,41,64.0,62,13,0.67,0,7,6,6,1885,892,520,194,249,53,45,0,19,1.6,11.3,10.19,0,882,47
2022/05/20 21:24,52,82,1,70,51,20,5,1.49,39,64.0,54,9,0.67,0,7,6,5,1790,762,514,218,263,54,45,0,27,1.6,11.3,11.02,0,882,47
2022/05/20 21:26,52,82,3,75,55,28,8,1.49,39,64.0,54,9,0.67,0,9,6,7,1790,773,514,217,263,54,45,0,30,1.6,11.3,10.99,0,882,47
2022/05/20 21:28,31,71,4,58,58,28,11,1.17,39,64.0,60,5,0.67,0,9,7,8,1833,834,517,204,257,54,45,0,64,1.6,11.3,10.61,0,882,47
